Flag for Germany Weather past 2 weeks in Lahr, Baden-Württemberg, Germany

Now
68 °F

Scattered clouds.


Feels Like: 68 °F
Forecast: 54 / 75 °F
Wind: 2 mph from Northwest

Location: Lahr

Current Time: Jul 25, 2014 at 11:14:44 AM

Latest Report: Jul 25, 2014 at 10:00 AM


Visibility: 22 mi

Pressure: 29.93 "Hg

Humidity: 77%

Dew point: 61 °F

Location of LahrLocation

Historic Weather in Lahr — Graph

°F

Lahr temperature yesterday

Maximum temperature yesterday: 81 °F (at 5:00 PM)
Minimum temperature yesterday: 58 °F (at 6:00 AM)
Average temperature yesterday: 70 °F

Past Weeks' High & Low Weather Summary

 TemperatureHumidityPressure
High94 °F (Jul 18, 7:00 PM)100% (Jul 12, 12:00 AM)30.19 "Hg (Jul 12, 12:00 AM)
Low57 °F (Jul 16, 6:00 AM)29% (Jul 18, 6:00 PM)29.79 "Hg (Jul 20, 2:00 AM)
Average69 °F79%29.96 "Hg
* Reported Jul 10 10:00 AM — Jul 25 10:00 AM, Lahr, Weather by CustomWeather, © 2014

Note: Actual official high and low records may vary slightly from our data, if they occured in-between our weather recording intervals... More about our weather records

Advertising

Lahr weather history for previous 24 hours

 ConditionsComfort  
Time TempWeatherWind HumidityBarometerVisibility
10:00 AM
Jul 25
68 °FScattered clouds.2 mph77%29.93 "Hg22 mi
9:00 AM66 °FScattered clouds.1 mph78%29.93 "Hg22 mi
8:00 AM64 °FPassing clouds.2 mph86%29.92 "Hg25 mi
7:00 AM61 °FPassing clouds.2 mph91%29.92 "Hg19 mi
6:00 AM59 °FFog.1 mph94%29.92 "Hg10 mi
5:00 AM61 °FOvercast.1 mph92%29.91 "Hg10 mi
4:00 AM60 °FClear.1 mph92%29.91 "Hg11 mi
3:00 AM62 °FOvercast.1 mph90%29.91 "Hg11 mi
2:00 AM64 °FOvercast.2 mph86%29.91 "Hg14 mi
1:00 AM64 °FClear.5 mph79%29.92 "Hg19 mi
12:00 AM64 °FClear.1 mph87%29.92 "Hg10 mi
11:00 PM
Jul 24
64 °FClear.1 mph85%29.90 "Hg14 mi
10:00 PM67 °FClear.1 mph84%29.88 "Hg15 mi
9:00 PM74 °FScattered clouds.1 mph65%29.87 "Hg28 mi
8:00 PM78 °FPassing clouds.2 mph55%29.85 "Hg28 mi
7:00 PM80 °FPassing clouds.2 mph46%29.84 "Hg28 mi
6:00 PM81 °FPassing clouds.3 mph41%29.85 "Hg28 mi
5:00 PM81 °FScattered clouds.5 mph37%29.86 "Hg28 mi
4:00 PM80 °FScattered clouds.5 mph46%29.86 "Hg28 mi
3:00 PM78 °FScattered clouds.6 mph48%29.86 "Hg28 mi
2:00 PM80 °FPassing clouds.5 mph51%29.87 "Hg28 mi
1:00 PM78 °FPassing clouds.3 mph57%29.88 "Hg28 mi
12:00 PM76 °FPassing clouds.5 mph61%29.88 "Hg28 mi
11:00 AM72 °FPassing clouds.2 mph66%29.89 "Hg25 mi
Weather by CustomWeather, © 2014

See weather overviewHow to use our weather pages